Le nostre stazioni meteo in Italia

Pubblicità
Il mio iltempo24.it
Fucino, Italia (16227): Temperatura & dewpoint: 15.09.2018 05:00:00 - 21.09.2018 05:00:00 (CEST)Fucino, Italia (16227): velocità del vento: 15.09.2018 05:00:00 - 21.09.2018 05:00:00 (CEST)Fucino, Italia (16227): direzione del vento: 15.09.2018 05:00:00 - 21.09.2018 05:00:00 (CEST)Fucino, Italia (16227): precipitazioni: 15.09.2018 05:00:00 - 21.09.2018 05:00:00 (CEST)
Data & Tempo tt [°C] td [°C] ff [km/h] ff [kn] dd rr [mm]
21.09.2018 05:00:00 - - - - - -
21.09.2018 04:00:00 18,2 17,2 0 0 N -
21.09.2018 03:00:00 18,6 17,6 4 2 SE -
21.09.2018 02:00:00 19,0 18,0 2 1 NO -
21.09.2018 01:00:00 18,9 17,9 4 2 E -
21.09.2018 00:00:00 19,9 18,8 0 0 N -
20.09.2018 23:00:00 20,3 19,1 2 1 ESE -
20.09.2018 22:00:00 20,3 19,1 2 1 E -
20.09.2018 21:00:00 20,5 19,3 4 2 S -
20.09.2018 20:00:00 21,2 20,0 4 2 ESE 0,0
20.09.2018 19:00:00 22,2 20,8 5 3 ESE -
20.09.2018 18:00:00 22,6 21,2 2 1 E -
20.09.2018 17:00:00 22,6 21,0 8 4 SSE -
20.09.2018 16:00:00 24,7 21,6 8 4 NE -
20.09.2018 15:00:00 25,7 21,1 9 5 NE -
20.09.2018 14:00:00 26,0 20,7 9 5 NNE 0,0
20.09.2018 13:00:00 25,7 20,9 11 6 NNE -
20.09.2018 12:00:00 25,4 22,2 5 3 N -
20.09.2018 11:00:00 24,5 22,9 4 2 ENE -
20.09.2018 10:00:00 22,1 21,0 2 1 S -
20.09.2018 09:00:00 19,6 18,6 2 1 NE -
20.09.2018 08:00:00 18,5 17,5 2 1 OSO 0,0
20.09.2018 07:00:00 18,0 17,0 2 1 SE -
20.09.2018 06:00:00 18,1 17,1 4 2 S -
20.09.2018 05:00:00 18,6 17,6 0 0 N -
20.09.2018 04:00:00 19,2 18,2 4 2 SSE -
20.09.2018 03:00:00 19,7 18,6 2 1 SSE -
20.09.2018 02:00:00 19,9 18,8 2 1 ESE 0,0
20.09.2018 01:00:00 20,1 19,0 2 1 ENE -
20.09.2018 00:00:00 20,3 19,1 4 2 SSO -
19.09.2018 23:00:00 21,0 19,8 0 0 N -
19.09.2018 22:00:00 20,9 19,7 5 3 SE -
19.09.2018 21:00:00 22,1 20,7 0 0 N -
19.09.2018 20:00:00 22,5 20,9 4 2 E 0,0
19.09.2018 19:00:00 22,6 20,8 9 5 NNE -
19.09.2018 18:00:00 23,7 21,9 8 4 E -
19.09.2018 17:00:00 25,2 20,4 5 3 ONO -
19.09.2018 16:00:00 25,4 21,0 8 4 NE -
19.09.2018 15:00:00 25,7 21,3 5 3 E -
19.09.2018 14:00:00 25,9 20,2 4 2 NE 0,0
19.09.2018 13:00:00 26,2 20,5 4 2 S -
19.09.2018 12:00:00 25,5 22,7 5 3 ESE -
19.09.2018 11:00:00 23,6 21,8 4 2 NO -
19.09.2018 10:00:00 21,6 20,5 2 1 E -
19.09.2018 09:00:00 18,6 17,6 2 1 O -
19.09.2018 08:00:00 17,5 16,5 0 0 N 0,0
19.09.2018 07:00:00 16,6 15,6 2 1 ESE -
19.09.2018 06:00:00 16,5 15,5 2 1 S -
19.09.2018 05:00:00 16,6 15,6 0 0 N -
19.09.2018 04:00:00 16,5 15,5 0 0 N -
19.09.2018 03:00:00 16,2 15,0 2 1 NNE -
19.09.2018 02:00:00 17,2 16,0 0 0 N 0,0
19.09.2018 01:00:00 17,5 16,3 2 1 SSE -
19.09.2018 00:00:00 18,5 17,3 0 0 N -
18.09.2018 23:00:00 19,7 18,5 4 2 N -
18.09.2018 22:00:00 20,2 18,8 2 1 NE -
18.09.2018 21:00:00 21,7 20,1 2 1 O -
18.09.2018 20:00:00 22,3 20,7 2 1 NNE -
18.09.2018 19:00:00 24,3 20,6 9 5 O -
18.09.2018 18:00:00 25,3 19,4 11 6 SO -
18.09.2018 17:00:00 26,1 18,9 4 2 ONO -
18.09.2018 16:00:00 27,0 19,5 15 8 ONO -
18.09.2018 15:00:00 27,9 17,7 11 6 O -
18.09.2018 14:00:00 27,8 18,2 4 2 N 0,0
18.09.2018 13:00:00 26,8 16,7 5 3 N -
18.09.2018 12:00:00 26,1 18,7 4 2 ONO -
18.09.2018 11:00:00 24,6 20,0 4 2 NNE -
18.09.2018 10:00:00 22,3 20,5 4 2 NNO -
18.09.2018 09:00:00 19,8 18,7 2 1 S -
18.09.2018 08:00:00 16,3 15,1 4 2 SSE -
18.09.2018 07:00:00 17,0 15,8 2 1 O -
18.09.2018 06:00:00 16,8 15,6 2 1 SO -
18.09.2018 05:00:00 16,7 15,5 0 0 N -
18.09.2018 04:00:00 16,3 14,9 2 1 SO -
18.09.2018 03:00:00 17,1 15,7 2 1 SE -
18.09.2018 02:00:00 18,0 16,6 2 1 ENE -
18.09.2018 01:00:00 17,7 16,1 2 1 NNO -
18.09.2018 00:00:00 18,8 17,2 0 0 N -
17.09.2018 23:00:00 20,2 18,4 2 1 S -
17.09.2018 22:00:00 20,9 18,4 8 4 S -
17.09.2018 21:00:00 23,8 19,7 11 6 NNE -
17.09.2018 20:00:00 24,7 19,0 4 2 NO -
17.09.2018 19:00:00 25,6 19,0 9 5 SSE -
17.09.2018 18:00:00 26,9 18,1 22 12 SO -
17.09.2018 17:00:00 28,1 17,0 22 12 SO -
17.09.2018 16:00:00 28,8 15,6 9 5 SSO -
17.09.2018 15:00:00 28,4 17,5 4 2 ONO -
17.09.2018 14:00:00 28,1 19,0 5 3 O -
17.09.2018 13:00:00 26,3 21,2 4 2 N -
17.09.2018 12:00:00 25,5 23,3 2 1 O -
17.09.2018 11:00:00 23,3 22,4 4 2 NE -
17.09.2018 10:00:00 20,5 19,6 2 1 O -
17.09.2018 09:00:00 18,0 17,1 0 0 N -
17.09.2018 08:00:00 14,7 13,7 2 1 SE -
17.09.2018 07:00:00 14,2 13,2 2 1 E -
17.09.2018 06:00:00 14,5 13,5 0 0 N -
17.09.2018 05:00:00 15,6 14,6 2 1 NNE -
17.09.2018 04:00:00 16,3 15,3 5 3 S -
17.09.2018 03:00:00 16,6 15,6 2 1 O -
17.09.2018 02:00:00 17,3 16,1 2 1 ONO -
17.09.2018 01:00:00 17,6 16,4 2 1 S -
17.09.2018 00:00:00 18,6 17,4 2 1 SSE -
16.09.2018 23:00:00 20,2 19,0 2 1 N -
16.09.2018 22:00:00 21,3 19,9 2 1 SO -
16.09.2018 21:00:00 21,8 20,4 4 2 ENE -
16.09.2018 20:00:00 22,3 20,9 2 1 ENE -
16.09.2018 19:00:00 22,4 20,8 16 9 NNE -
16.09.2018 18:00:00 26,8 19,6 9 5 O -
16.09.2018 17:00:00 27,9 19,1 15 8 S -
16.09.2018 16:00:00 28,5 14,7 5 3 NO -
16.09.2018 15:00:00 28,6 14,4 4 2 NE -
16.09.2018 14:00:00 28,4 18,1 5 3 N 0,0
16.09.2018 13:00:00 27,5 20,0 4 2 NE -
16.09.2018 12:00:00 25,4 20,4 4 2 O -
16.09.2018 11:00:00 24,0 21,8 4 2 SE -
16.09.2018 10:00:00 20,2 19,1 2 1 E -
16.09.2018 09:00:00 17,5 16,5 0 0 N -
16.09.2018 08:00:00 14,9 13,9 2 1 ONO 0,0
16.09.2018 07:00:00 13,0 11,9 4 2 SE -
16.09.2018 06:00:00 13,5 12,4 4 2 E -
16.09.2018 05:00:00 13,4 12,3 2 1 SSO -
16.09.2018 04:00:00 14,8 13,6 0 0 N -
16.09.2018 03:00:00 15,9 14,7 2 1 ENE -
16.09.2018 02:00:00 15,9 14,5 2 1 SE 0,0
16.09.2018 01:00:00 17,0 15,6 0 0 N -
16.09.2018 00:00:00 18,0 16,4 4 2 E -
15.09.2018 23:00:00 19,9 18,3 2 1 E -
15.09.2018 22:00:00 21,0 19,2 4 2 ESE -
15.09.2018 21:00:00 22,3 19,6 2 1 SO -
15.09.2018 20:00:00 24,3 19,9 2 1 ONO 0,0
15.09.2018 19:00:00 25,5 18,6 15 8 NE -
15.09.2018 18:00:00 25,3 20,9 5 3 S -
15.09.2018 17:00:00 26,7 20,0 9 5 ESE -
15.09.2018 16:00:00 27,1 18,3 13 7 NO -
15.09.2018 15:00:00 27,7 17,8 4 2 S -
15.09.2018 14:00:00 28,3 18,1 4 2 NNO 0,0
15.09.2018 13:00:00 27,3 18,8 4 2 NO -
15.09.2018 12:00:00 26,2 20,7 2 1 S -
15.09.2018 11:00:00 24,4 20,5 2 1 SSO -
15.09.2018 10:00:00 21,7 20,3 2 1 SSE -
15.09.2018 09:00:00 17,6 16,6 2 1 S -
15.09.2018 08:00:00 13,7 12,6 0 0 N 0,0
15.09.2018 07:00:00 12,6 11,5 2 1 N -
15.09.2018 06:00:00 12,8 11,5 0 0 N -
15.09.2018 05:00:00 14,0 12,8 2 1 NO -

tt = Temperatura
td = dewpoint
ff = velocità del vento
dd = direzione del vento
rr = precipitazioni

Stazioni seguenti

WeatherPro
AMSI
MeteoEarth